Time,TemperatureF,DewpointF,PressureIn,WindDirection,WindDirectionDegrees,WindSpeedMPH,WindSpeedGustMPH,Humidity,HourlyPrecipIn,Conditions,Clouds,dailyrainin,SoftwareType,DateUTC
2013-08-06 00:09:00,55.0,52.5,29.99,North,1,0.0,4.0,91,0.00,,,-99.99,Weather View 32 v60,2013-08-06 07:09:00,
2013-08-06 00:19:00,55.0,52.5,29.99,NNW,332,0.0,4.0,91,0.00,,,-99.99,Weather View 32 v60,2013-08-06 07:19:00,
2013-08-06 00:29:00,55.0,52.5,30.02,NW,310,0.0,4.0,91,0.00,,,-99.99,Weather View 32 v60,2013-08-06 07:29:00,
2013-08-06 00:39:00,55.0,52.5,30.02,SW,234,0.0,3.0,91,0.00,,,-99.99,Weather View 32 v60,2013-08-06 07:39:00,
2013-08-06 00:45:00,55.0,52.5,30.02,SW,234,0.0,3.0,91,0.00,,,-99.99,Weather View 32 v60,2013-08-06 07:45:00,
2013-08-06 00:59:00,55.2,52.9,30.02,NNW,342,0.0,3.0,92,0.00,,,-99.99,Weather View 32 v60,2013-08-06 07:59:00,
2013-08-06 01:09:00,55.8,53.5,30.02,West,272,0.0,0.0,92,0.00,,,-99.99,Weather View 32 v60,2013-08-06 08:09:00,
2013-08-06 01:19:00,55.9,53.6,30.02,WSW,250,0.0,0.0,92,0.00,,,-99.99,Weather View 32 v60,2013-08-06 08:19:00,
2013-08-06 01:29:00,56.3,54.0,29.99,WNW,302,0.0,0.0,92,0.00,,,-99.99,Weather View 32 v60,2013-08-06 08:29:00,
2013-08-06 01:39:00,56.3,53.7,29.99,NNE,20,0.0,0.0,91,0.00,,,-99.99,Weather View 32 v60,2013-08-06 08:39:00,
2013-08-06 01:46:00,56.3,53.7,29.99,NNE,20,0.0,0.0,91,0.00,,,-99.99,Weather View 32 v60,2013-08-06 08:46:00,
2013-08-06 01:59:00,56.5,53.6,29.99,WNW,295,0.0,0.0,90,0.00,,,-99.99,Weather View 32 v60,2013-08-06 08:59:00,
2013-08-06 02:09:00,56.5,53.6,29.99,NNW,338,0.0,0.0,90,0.00,,,-99.99,Weather View 32 v60,2013-08-06 09:09:00,
2013-08-06 02:19:00,56.5,53.6,29.99,West,265,0.0,0.0,90,0.00,,,-99.99,Weather View 32 v60,2013-08-06 09:19:00,
2013-08-06 02:29:00,56.7,53.4,29.99,North,356,0.0,0.0,89,0.00,,,-99.99,Weather View 32 v60,2013-08-06 09:29:00,
2013-08-06 02:39:00,56.7,53.4,29.99,NNW,331,0.0,0.0,89,0.00,,,-99.99,Weather View 32 v60,2013-08-06 09:39:00,
2013-08-06 02:47:00,56.7,53.4,29.99,NNW,331,0.0,0.0,89,0.00,,,-99.99,Weather View 32 v60,2013-08-06 09:47:00,
2013-08-06 02:59:00,56.8,53.3,29.99,NNW,334,0.0,0.0,88,0.00,,,-99.99,Weather View 32 v60,2013-08-06 09:59:00,
2013-08-06 03:09:00,56.8,53.3,29.99,NNW,347,0.0,0.0,88,0.00,,,-99.99,Weather View 32 v60,2013-08-06 10:09:00,
2013-08-06 03:20:00,56.8,53.0,29.99,North,351,0.0,0.0,87,0.00,,,-99.99,Weather View 32 v60,2013-08-06 10:20:00,
2013-08-06 03:29:00,56.8,53.0,29.99,NW,321,0.0,0.0,87,0.00,,,-99.99,Weather View 32 v60,2013-08-06 10:29:00,
2013-08-06 03:39:00,56.8,53.0,29.99,WSW,256,0.0,0.0,87,0.00,,,-99.99,Weather View 32 v60,2013-08-06 10:39:00,
2013-08-06 03:47:00,56.8,53.0,29.99,WSW,256,0.0,0.0,87,0.00,,,-99.99,Weather View 32 v60,2013-08-06 10:47:00,
2013-08-06 04:00:00,56.8,53.0,29.99,NW,308,0.0,4.0,87,0.00,,,-99.99,Weather View 32 v60,2013-08-06 11:00:00,
2013-08-06 04:10:00,56.8,53.0,29.99,WSW,240,0.0,4.0,87,0.00,,,-99.99,Weather View 32 v60,2013-08-06 11:10:00,
2013-08-06 04:20:00,57.0,53.5,29.99,WNW,303,0.0,4.0,88,0.00,,,-99.99,Weather View 32 v60,2013-08-06 11:20:00,
2013-08-06 04:30:00,57.0,53.2,29.99,North,351,0.0,4.0,87,0.00,,,-99.99,Weather View 32 v60,2013-08-06 11:30:00,
2013-08-06 04:40:00,57.0,53.2,29.99,West,264,0.0,4.0,87,0.00,,,-99.99,Weather View 32 v60,2013-08-06 11:40:00,
2013-08-06 04:48:00,57.0,53.2,29.99,West,264,0.0,4.0,87,0.00,,,-99.99,Weather View 32 v60,2013-08-06 11:48:00,
2013-08-06 05:00:00,57.0,52.9,29.99,WSW,245,4.0,4.0,86,0.00,,,-99.99,Weather View 32 v60,2013-08-06 12:00:00,
2013-08-06 05:10:00,56.8,53.0,29.99,West,259,0.0,4.0,87,0.00,,,-99.99,Weather View 32 v60,2013-08-06 12:10:00,
2013-08-06 05:20:00,57.0,53.2,29.99,WSW,251,0.0,4.0,87,0.00,,,-99.99,Weather View 32 v60,2013-08-06 12:20:00,
2013-08-06 05:30:00,57.0,53.2,29.99,NW,323,0.0,4.0,87,0.00,,,-99.99,Weather View 32 v60,2013-08-06 12:30:00,
2013-08-06 05:40:00,57.0,53.5,29.99,NW,305,0.0,4.0,88,0.00,,,-99.99,Weather View 32 v60,2013-08-06 12:40:00,
2013-08-06 05:48:00,57.0,53.5,29.99,NW,305,0.0,4.0,88,0.00,,,-99.99,Weather View 32 v60,2013-08-06 12:48:00,
2013-08-06 06:00:00,57.2,53.7,29.99,West,264,0.0,4.0,88,0.00,,,-99.99,Weather View 32 v60,2013-08-06 13:00:00,
2013-08-06 06:10:00,57.2,53.4,29.99,WSW,243,0.0,4.0,87,0.00,,,-99.99,Weather View 32 v60,2013-08-06 13:10:00,
2013-08-06 06:20:00,57.2,53.4,29.99,West,280,0.0,4.0,87,0.00,,,-99.99,Weather View 32 v60,2013-08-06 13:20:00,
2013-08-06 06:30:00,57.2,53.4,30.02,SSW,201,0.0,4.0,87,0.00,,,-99.99,Weather View 32 v60,2013-08-06 13:30:00,
2013-08-06 06:40:00,57.0,53.2,30.02,WSW,243,0.0,0.0,87,0.00,,,-99.99,Weather View 32 v60,2013-08-06 13:40:00,
2013-08-06 06:49:00,57.0,53.2,30.02,WSW,243,0.0,0.0,87,0.00,,,-99.99,Weather View 32 v60,2013-08-06 13:49:00,
2013-08-06 07:00:00,57.2,53.0,30.02,West,274,0.0,7.0,86,0.00,,,-99.99,Weather View 32 v60,2013-08-06 14:00:00,
2013-08-06 07:10:00,57.2,53.0,30.02,WSW,250,7.0,7.0,86,0.00,,,-99.99,Weather View 32 v60,2013-08-06 14:10:00,
2013-08-06 07:20:00,57.4,53.2,30.02,SW,224,0.0,7.0,86,0.00,,,-99.99,Weather View 32 v60,2013-08-06 14:20:00,
2013-08-06 07:30:00,57.4,53.2,30.02,NW,317,0.0,7.0,86,0.00,,,-99.99,Weather View 32 v60,2013-08-06 14:30:00,
2013-08-06 07:40:00,57.7,53.6,30.02,West,262,0.0,7.0,86,0.00,,,-99.99,Weather View 32 v60,2013-08-06 14:40:00,
2013-08-06 07:49:00,57.7,53.6,30.02,West,262,0.0,7.0,86,0.00,,,-99.99,Weather View 32 v60,2013-08-06 14:49:00,
2013-08-06 08:00:00,57.9,53.1,30.02,WSW,238,0.0,7.0,84,0.00,,,-99.99,Weather View 32 v60,2013-08-06 15:00:00,
2013-08-06 08:10:00,58.1,53.3,30.02,West,278,0.0,7.0,84,0.00,,,-99.99,Weather View 32 v60,2013-08-06 15:10:00,
2013-08-06 08:20:00,58.3,53.1,30.02,NW,306,0.0,5.0,83,0.00,,,-99.99,Weather View 32 v60,2013-08-06 15:20:00,
2013-08-06 08:30:00,58.6,53.5,30.05,WSW,238,0.0,5.0,83,0.00,,,-99.99,Weather View 32 v60,2013-08-06 15:30:00,
2013-08-06 08:40:00,59.2,53.3,30.05,West,281,0.0,6.0,81,0.00,,,-99.99,Weather View 32 v60,2013-08-06 15:40:00,
2013-08-06 08:50:00,59.9,53.0,30.05,NNW,342,0.0,6.0,78,0.00,,,-99.99,Weather View 32 v60,2013-08-06 15:50:00,
2013-08-06 08:59:00,60.1,52.1,30.05,West,280,0.0,8.0,75,0.00,,,-99.99,Weather View 32 v60,2013-08-06 15:59:00,
2013-08-06 09:10:00,61.0,52.6,30.05,NNW,336,0.0,8.0,74,0.00,,,-99.99,Weather View 32 v60,2013-08-06 16:10:00,
2013-08-06 09:19:00,61.7,52.6,30.05,NNW,336,0.0,8.0,72,0.00,,,-99.99,Weather View 32 v60,2013-08-06 16:19:00,
2013-08-06 09:30:00,62.6,52.3,30.05,West,269,0.0,8.0,69,0.00,,,-99.99,Weather View 32 v60,2013-08-06 16:30:00,
2013-08-06 09:40:00,63.9,52.2,30.05,North,351,0.0,8.0,66,0.00,,,-99.99,Weather View 32 v60,2013-08-06 16:40:00,
2013-08-06 09:50:00,64.4,52.3,30.05,WSW,256,0.0,8.0,65,0.00,,,-99.99,Weather View 32 v60,2013-08-06 16:50:00,
2013-08-06 10:00:00,64.9,52.9,30.05,WSW,254,0.0,0.0,65,0.00,,,-99.99,Weather View 32 v60,2013-08-06 17:00:00,
2013-08-06 10:09:00,65.3,52.3,30.05,North,5,0.0,7.0,63,0.00,,,-99.99,Weather View 32 v60,2013-08-06 17:09:00,
2013-08-06 10:20:00,66.0,51.7,30.05,North,0,7.0,7.0,60,0.00,,,-99.99,Weather View 32 v60,2013-08-06 17:20:00,
2013-08-06 10:29:00,66.2,52.8,30.05,NNW,330,0.0,7.0,62,0.00,,,-99.99,Weather View 32 v60,2013-08-06 17:29:00,
2013-08-06 10:40:00,66.9,52.5,30.05,WNW,292,0.0,7.0,60,0.00,,,-99.99,Weather View 32 v60,2013-08-06 17:40:00,
2013-08-06 10:49:00,67.3,52.0,30.05,WSW,247,0.0,7.0,58,0.00,,,-99.99,Weather View 32 v60,2013-08-06 17:49:00,
2013-08-06 11:00:00,68.4,51.5,30.05,South,185,0.0,7.0,55,0.00,,,-99.99,Weather View 32 v60,2013-08-06 18:00:00,
2013-08-06 11:10:00,68.9,50.5,30.05,NNW,340,8.0,11.0,52,0.00,,,-99.99,Weather View 32 v60,2013-08-06 18:10:00,
2013-08-06 11:20:00,68.9,51.5,30.05,West,275,3.0,11.0,54,0.00,,,-99.99,Weather View 32 v60,2013-08-06 18:20:00,
2013-08-06 11:29:00,70.0,49.9,30.02,NNW,336,0.0,11.0,49,0.00,,,-99.99,Weather View 32 v60,2013-08-06 18:29:00,
2013-08-06 11:40:00,70.2,50.6,30.02,WNW,297,0.0,12.0,50,0.00,,,-99.99,Weather View 32 v60,2013-08-06 18:40:00,
2013-08-06 11:50:00,70.9,50.2,30.02,NW,308,0.0,12.0,48,0.00,,,-99.99,Weather View 32 v60,2013-08-06 18:50:00,
2013-08-06 11:59:00,71.8,48.6,30.02,WNW,297,4.0,12.0,44,0.00,,,-99.99,Weather View 32 v60,2013-08-06 18:59:00,
2013-08-06 12:10:00,72.9,50.2,30.02,North,351,0.0,12.0,45,0.00,,,-99.99,Weather View 32 v60,2013-08-06 19:10:00,
2013-08-06 12:19:00,73.6,50.3,30.02,WNW,294,0.0,12.0,44,0.00,,,-99.99,Weather View 32 v60,2013-08-06 19:19:00,
2013-08-06 12:30:00,75.2,49.8,30.02,NNW,328,0.0,12.0,41,0.00,,,-99.99,Weather View 32 v60,2013-08-06 19:30:00,
2013-08-06 12:39:00,75.9,49.1,30.02,West,270,4.0,12.0,39,0.00,,,-99.99,Weather View 32 v60,2013-08-06 19:39:00,
2013-08-06 12:50:00,76.1,48.6,30.02,West,263,0.0,12.0,38,0.00,,,-99.99,Weather View 32 v60,2013-08-06 19:50:00,
2013-08-06 12:59:00,76.3,50.8,30.02,SW,219,0.0,12.0,41,0.00,,,-99.99,Weather View 32 v60,2013-08-06 19:59:00,
2013-08-06 13:10:00,76.8,50.6,30.02,WSW,240,3.0,11.0,40,0.00,,,-99.99,Weather View 32 v60,2013-08-06 20:10:00,
2013-08-06 13:19:00,77.4,49.0,30.02,WSW,250,3.0,11.0,37,0.00,,,-99.99,Weather View 32 v60,2013-08-06 20:19:00,
2013-08-06 13:30:00,76.6,48.3,30.02,West,261,0.0,11.0,37,0.00,,,-99.99,Weather View 32 v60,2013-08-06 20:30:00,
2013-08-06 13:40:00,75.6,48.8,30.02,West,268,0.0,11.0,39,0.00,,,-99.99,Weather View 32 v60,2013-08-06 20:40:00,
2013-08-06 13:49:00,75.7,48.9,30.02,WNW,285,0.0,11.0,39,0.00,,,-99.99,Weather View 32 v60,2013-08-06 20:49:00,
2013-08-06 14:00:00,75.4,49.3,30.02,WSW,251,0.0,11.0,40,0.00,,,-99.99,Weather View 32 v60,2013-08-06 21:00:00,
2013-08-06 14:09:00,75.9,49.1,29.99,WSW,243,4.0,11.0,39,0.00,,,-99.99,Weather View 32 v60,2013-08-06 21:09:00,
2013-08-06 14:20:00,78.1,48.9,29.99,SW,219,0.0,11.0,36,0.00,,,-99.99,Weather View 32 v60,2013-08-06 21:20:00,
2013-08-06 14:29:00,79.5,48.6,29.99,WSW,249,4.0,11.0,34,0.00,,,-99.99,Weather View 32 v60,2013-08-06 21:29:00,
2013-08-06 14:40:00,79.2,49.1,29.99,ENE,69,3.0,11.0,35,0.00,,,-99.99,Weather View 32 v60,2013-08-06 21:40:00,
2013-08-06 14:49:00,79.3,48.4,29.99,NW,313,0.0,11.0,34,0.00,,,-99.99,Weather View 32 v60,2013-08-06 21:49:00,
2013-08-06 15:00:00,78.8,48.8,29.99,WSW,248,0.0,11.0,35,0.00,,,-99.99,Weather View 32 v60,2013-08-06 22:00:00,
2013-08-06 15:10:00,79.0,49.7,29.99,NNW,345,0.0,11.0,36,0.00,,,-99.99,Weather View 32 v60,2013-08-06 22:10:00,
2013-08-06 15:19:00,78.6,47.8,29.99,North,351,5.0,11.0,34,0.00,,,-99.99,Weather View 32 v60,2013-08-06 22:19:00,
2013-08-06 15:30:00,78.8,48.0,29.99,SSE,165,0.0,10.0,34,0.00,,,-99.99,Weather View 32 v60,2013-08-06 22:30:00,
2013-08-06 15:39:00,78.1,48.1,29.99,NW,325,0.0,11.0,35,0.00,,,-99.99,Weather View 32 v60,2013-08-06 22:39:00,
2013-08-06 15:50:00,78.4,47.7,29.99,WNW,303,5.0,11.0,34,0.00,,,-99.99,Weather View 32 v60,2013-08-06 22:50:00,
2013-08-06 15:59:00,78.1,48.1,29.99,SW,236,7.0,11.0,35,0.00,,,-99.99,Weather View 32 v60,2013-08-06 22:59:00,
2013-08-06 16:10:00,77.9,49.5,29.99,North,5,4.0,11.0,37,0.00,,,-99.99,Weather View 32 v60,2013-08-06 23:10:00,
2013-08-06 16:19:00,77.5,49.1,29.99,WNW,283,3.0,11.0,37,0.00,,,-99.99,Weather View 32 v60,2013-08-06 23:19:00,
2013-08-06 16:30:00,77.0,48.7,29.99,SW,229,0.0,11.0,37,0.00,,,-99.99,Weather View 32 v60,2013-08-06 23:30:00,
2013-08-06 16:39:00,76.8,49.2,29.99,NNW,337,3.0,11.0,38,0.00,,,-99.99,Weather View 32 v60,2013-08-06 23:39:00,
2013-08-06 16:50:00,76.5,48.9,29.99,SW,214,0.0,11.0,38,0.00,,,-99.99,Weather View 32 v60,2013-08-06 23:50:00,
2013-08-06 17:00:00,76.1,49.3,29.99,SSW,203,9.0,11.0,39,0.00,,,-99.99,Weather View 32 v60,2013-08-07 00:00:00,
2013-08-06 17:09:00,75.7,48.9,29.99,West,270,7.0,13.0,39,0.00,,,-99.99,Weather View 32 v60,2013-08-07 00:09:00,
2013-08-06 17:20:00,74.8,48.8,29.99,NW,316,6.0,13.0,40,0.00,,,-99.99,Weather View 32 v60,2013-08-07 00:20:00,
2013-08-06 17:29:00,74.1,49.5,29.99,SW,234,0.0,13.0,42,0.00,,,-99.99,Weather View 32 v60,2013-08-07 00:29:00,
2013-08-06 17:40:00,74.3,49.7,29.99,SW,216,0.0,13.0,42,0.00,,,-99.99,Weather View 32 v60,2013-08-07 00:40:00,
2013-08-06 17:49:00,73.6,49.0,29.99,WNW,284,0.0,13.0,42,0.00,,,-99.99,Weather View 32 v60,2013-08-07 00:49:00,
2013-08-06 17:55:00,73.6,49.0,29.99,WNW,284,0.0,13.0,42,0.00,,,-99.99,Weather View 32 v60,2013-08-07 00:55:00,
2013-08-06 18:09:00,71.6,48.5,29.99,WNW,298,0.0,11.0,44,0.00,,,-99.99,Weather View 32 v60,2013-08-07 01:09:00,
2013-08-06 18:19:00,70.7,48.3,29.99,SW,227,0.0,10.0,45,0.00,,,-99.99,Weather View 32 v60,2013-08-07 01:19:00,
2013-08-06 18:29:00,70.3,48.5,29.99,SW,214,4.0,10.0,46,0.00,,,-99.99,Weather View 32 v60,2013-08-07 01:29:00,
2013-08-06 18:39:00,69.6,48.4,29.99,NW,308,0.0,9.0,47,0.00,,,-99.99,Weather View 32 v60,2013-08-07 01:39:00,
2013-08-06 18:49:00,68.7,49.3,29.99,SW,223,0.0,9.0,50,0.00,,,-99.99,Weather View 32 v60,2013-08-07 01:49:00,
2013-08-06 18:55:00,68.7,49.3,29.99,SW,223,0.0,9.0,50,0.00,,,-99.99,Weather View 32 v60,2013-08-07 01:55:00,
2013-08-06 19:09:00,67.1,50.3,29.99,North,351,0.0,9.0,55,0.00,,,-99.99,Weather View 32 v60,2013-08-07 02:09:00,
2013-08-06 19:19:00,66.6,50.3,29.99,West,281,0.0,9.0,56,0.00,,,-99.99,Weather View 32 v60,2013-08-07 02:19:00,
2013-08-06 19:29:00,65.8,51.1,30.02,WSW,244,4.0,9.0,59,0.00,,,-99.99,Weather View 32 v60,2013-08-07 02:29:00,
2013-08-06 19:39:00,65.1,51.3,30.02,WNW,290,0.0,9.0,61,0.00,,,-99.99,Weather View 32 v60,2013-08-07 02:39:00,
2013-08-06 19:49:00,64.4,51.5,30.02,WNW,293,0.0,10.0,63,0.00,,,-99.99,Weather View 32 v60,2013-08-07 02:49:00,
2013-08-06 19:56:00,64.4,51.5,30.02,WNW,293,0.0,10.0,63,0.00,,,-99.99,Weather View 32 v60,2013-08-07 02:56:00,
2013-08-06 20:10:00,63.0,51.4,30.02,NW,312,3.0,11.0,66,0.00,,,-99.99,Weather View 32 v60,2013-08-07 03:10:00,
2013-08-06 20:20:00,62.1,51.7,30.02,WNW,292,0.0,11.0,69,0.00,,,-99.99,Weather View 32 v60,2013-08-07 03:20:00,
2013-08-06 20:30:00,61.3,52.2,30.02,West,281,0.0,11.0,72,0.00,,,-99.99,Weather View 32 v60,2013-08-07 03:30:00,
2013-08-06 20:40:00,61.0,52.2,30.02,SW,229,0.0,11.0,73,0.00,,,-99.99,Weather View 32 v60,2013-08-07 03:40:00,
2013-08-06 20:49:00,60.6,52.6,30.02,SW,219,0.0,11.0,75,0.00,,,-99.99,Weather View 32 v60,2013-08-07 03:49:00,
2013-08-06 20:56:00,60.6,52.6,30.02,SW,219,0.0,11.0,75,0.00,,,-99.99,Weather View 32 v60,2013-08-07 03:56:00,
2013-08-06 21:10:00,60.3,53.0,30.02,SW,227,0.0,10.0,77,0.00,,,-99.99,Weather View 32 v60,2013-08-07 04:10:00,
2013-08-06 21:20:00,60.1,53.2,30.02,WNW,285,0.0,10.0,78,0.00,,,-99.99,Weather View 32 v60,2013-08-07 04:20:00,
2013-08-06 21:30:00,59.7,53.5,30.05,SW,219,0.0,10.0,80,0.00,,,-99.99,Weather View 32 v60,2013-08-07 04:30:00,
2013-08-06 21:40:00,59.7,53.9,30.05,SSW,207,4.0,10.0,81,0.00,,,-99.99,Weather View 32 v60,2013-08-07 04:40:00,
2013-08-06 21:50:00,59.5,54.0,30.05,WSW,246,0.0,10.0,82,0.00,,,-99.99,Weather View 32 v60,2013-08-07 04:50:00,
2013-08-06 21:57:00,59.5,54.0,30.05,WSW,246,0.0,10.0,82,0.00,,,-99.99,Weather View 32 v60,2013-08-07 04:57:00,
2013-08-06 22:10:00,59.5,54.0,30.05,West,277,0.0,10.0,82,0.00,,,-99.99,Weather View 32 v60,2013-08-07 05:10:00,
2013-08-06 22:20:00,59.5,54.4,30.05,WSW,241,0.0,10.0,83,0.00,,,-99.99,Weather View 32 v60,2013-08-07 05:20:00,
2013-08-06 22:30:00,59.5,54.4,30.05,WNW,282,0.0,10.0,83,0.00,,,-99.99,Weather View 32 v60,2013-08-07 05:30:00,
2013-08-06 22:40:00,59.7,54.5,30.05,West,275,7.0,10.0,83,0.00,,,-99.99,Weather View 32 v60,2013-08-07 05:40:00,
2013-08-06 22:50:00,59.7,54.5,30.05,West,260,9.0,9.0,83,0.00,,,-99.99,Weather View 32 v60,2013-08-07 05:50:00,
2013-08-06 22:57:00,59.7,54.5,30.05,West,260,9.0,9.0,83,0.00,,,-99.99,Weather View 32 v60,2013-08-07 05:57:00,
2013-08-06 23:10:00,59.9,54.4,30.05,WSW,256,0.0,10.0,82,0.00,,,-99.99,Weather View 32 v60,2013-08-07 06:10:00,
2013-08-06 23:20:00,59.9,54.4,30.05,SSW,194,3.0,10.0,82,0.00,,,-99.99,Weather View 32 v60,2013-08-07 06:20:00,
2013-08-06 23:30:00,60.1,53.9,30.05,WSW,240,7.0,13.0,80,0.00,,,-99.99,Weather View 32 v60,2013-08-07 06:30:00,
2013-08-06 23:40:00,60.1,53.9,30.05,West,271,5.0,13.0,80,0.00,,,-99.99,Weather View 32 v60,2013-08-07 06:40:00,
2013-08-06 23:50:00,60.1,53.9,30.05,SSE,168,0.0,13.0,80,0.00,,,-99.99,Weather View 32 v60,2013-08-07 06:50:00,
2013-08-06 23:58:00,60.1,53.9,30.05,SSE,168,0.0,13.0,80,0.00,,,-99.99,Weather View 32 v60,2013-08-07 06:58:00,